Погода в Юсьве

Россия / Пермский край     58°57′57″N   54°57′16″E
темп.,
°C
ветер,
м/с
пор.,
м/с
влажн.,
%
обл.,
%
осадки,
мм/ч
давл.,
гПа
погр.,
м
21 апреля, ср
ср2123:00+1з11685 0.0 103210
02:000ююз01755 0.0 103210
05:000ю11750 0.0 103210
08:00+3ю12640 0.0 1032106
11:00+9ююв23430 0.0 1031727
14:00+11ю45367 0.0 10301296
17:00+12ююв463497 0.0 10291318
20:00+9ююв3949100 0.0 1028232
22 апреля, чт
чт2223:00+7ююв41453100 0.0 1028525
02:00+6ююв41458100 0.0 1026516
05:00+6ю51360100 0.0 1026762
08:00+5ююв51372100 0.0 1025915
11:00+4ю51395100 1.1 1026897
14:00+3ю51296100 1.3 1027717
17:00+4ю41196100 1.4 1027648
20:00+4ю41197100 0.0 1028668
23 апреля, пт
пт2323:00+4ю31097100 0.0 1027561
02:00+4ю41098100 0.0 1027563
05:00+4ю3998100 0.0 1027455
08:00+4ю3793100 0.0 1028436
11:00+6ююз358598 0.0 1028614
14:00+8ю3374100 0.0 1028837
17:00+7ю347797 0.1 1028758
20:00+5ююв3589100 0.0 1029523
24 апреля, сб
сб2423:00+4ююв2492100 0.0 1028312
02:00+4в139590 0.0 1028140
05:00+3всв2696100 0.0 1026245
08:00+4всв3890100 0.0 1025351
11:00+7в4778100 0.0 1022552
14:00+6в3888100 0.1 1021487
17:00+6в3893100 1.3 1019552
20:00+5вюв3897100 1.0 1017439
25 апреля, вс
вс2523:00+5вюв3897100 1.4 1016385
02:00+5в3996100 0.5 1014385
05:00+5вюв41089100 0.5 1013416
08:00+4юв41089100 0.8 1012458
11:00+5юв4990100 0.9 1010932
14:00+5юв4993100 0.1 1009538
17:00+6юв4895100 2.1 10071043
20:00+5юз5128499 1.1 10091087